,,,PA_Meas_PMT16A,,PR_Meas_QMR101_102,,RH_Meas_QMH101,,SR_Meas_QMS101,,TA_Meas_QMH101,,GenWind,,GenWind,
date,time,status,PA,status,PR,status,RH,status,SR,status,TA,status,DirAvg,status,SpdAvg,
2011-12-28, 00:00:04,VALID,1001.81,VALID,0,VALID,87.7177,VALID,0,VALID,25.1631,VALID,349,VALID,1.54297,
2011-12-28, 00:01:04,VALID,1001.83,VALID,0,VALID,88.0077,VALID,0,VALID,25.1631,VALID,319,VALID,0.817969,
2011-12-28, 00:02:04,VALID,1001.77,VALID,0,VALID,88.0534,VALID,0,VALID,25.1455,VALID,348,VALID,0.586719,
2011-12-28, 00:03:04,VALID,1001.74,VALID,0,VALID,88.1297,VALID,0,VALID,25.1045,VALID,337,VALID,0.83125,
2011-12-28, 00:04:04,VALID,1001.74,VALID,0,VALID,88.3968,VALID,0,VALID,25.085,VALID,338,VALID,1.01563,
2011-12-28, 00:05:04,VALID,1001.73,VALID,0,VALID,88.2671,VALID,0,VALID,25.0655,VALID,342,VALID,1.06758,
2011-12-28, 00:06:04,VALID,1001.69,VALID,0,VALID,88.6028,VALID,0,VALID,25.046,VALID,333,VALID,0.987891,
2011-12-28, 00:07:04,VALID,1001.66,VALID,0,VALID,88.6028,VALID,0,VALID,25.0265,VALID,341,VALID,1.41289,
2011-12-28, 00:08:04,VALID,1001.64,VALID,0,VALID,88.6867,VALID,0,VALID,25.0069,VALID,324,VALID,0.960938,
2011-12-28, 00:09:04,VALID,1001.58,VALID,0,VALID,88.4578,VALID,0,VALID,25.0265,VALID,348,VALID,1.31562,
2011-12-28, 00:10:04,VALID,1001.6,VALID,0,VALID,88.2747,VALID,0,VALID,25.0265,VALID,336,VALID,1.79102,
2011-12-28, 00:11:04,VALID,1001.58,VALID,0,VALID,88.2747,VALID,0,VALID,25.046,VALID,322,VALID,1.59414,
2011-12-28, 00:12:04,VALID,1001.56,VALID,0,VALID,88.4731,VALID,0,VALID,25.0265,VALID,322,VALID,0.659766,
2011-12-28, 00:13:04,VALID,1001.53,VALID,0,VALID,88.496,VALID,0,VALID,25.0069,VALID,342,VALID,1.02617,
2011-12-28, 00:14:04,VALID,1001.54,VALID,0,VALID,88.3586,VALID,0,VALID,25.0265,VALID,340,VALID,1.5625,
2011-12-28, 00:15:04,VALID,1001.46,VALID,0,VALID,88.3129,VALID,0,VALID,25.0265,VALID,330,VALID,1.46172,
2011-12-28, 00:16:04,VALID,1001.46,VALID,0,VALID,88.0611,VALID,0,VALID,25.046,VALID,326,VALID,0.910547,
2011-12-28, 00:17:04,VALID,1001.49,VALID,0,VALID,88.2366,VALID,0,VALID,25.0655,VALID,308,VALID,0.820703,
2011-12-28, 00:18:04,VALID,1001.44,VALID,0,VALID,88.351,VALID,0,VALID,25.046,VALID,10,VALID,1.79102,
2011-12-28, 00:19:04,VALID,1001.42,VALID,0,VALID,88.0611,VALID,0.104696,VALID,25.046,VALID,341,VALID,1.89961,
2011-12-28, 00:20:04,VALID,1001.39,VALID,0,VALID,87.6796,VALID,0,VALID,25.085,VALID,332,VALID,1.59609,
2011-12-28, 00:21:04,VALID,1001.37,VALID,0,VALID,87.7711,VALID,0,VALID,25.1045,VALID,340,VALID,1.30938,
2011-12-28, 00:22:04,VALID,1001.37,VALID,0,VALID,87.8474,VALID,0,VALID,25.085,VALID,333,VALID,2.13008,
2011-12-28, 00:23:04,VALID,1001.33,VALID,0,VALID,87.9237,VALID,0,VALID,25.085,VALID,350,VALID,1.15352,
2011-12-28, 00:24:04,VALID,1001.34,VALID,0,VALID,88.0916,VALID,0.104696,VALID,25.085,VALID,326,VALID,1.69883,
2011-12-28, 00:25:04,VALID,1001.29,VALID,0,VALID,88.145,VALID,0,VALID,25.0246,VALID,292,VALID,0.988281,
2011-12-28, 00:26:04,VALID,1001.27,VALID,0,VALID,88.0687,VALID,0,VALID,25.046,VALID,330,VALID,1.26914,
2011-12-28, 00:27:04,VALID,1001.27,VALID,0,VALID,88.2137,VALID,0,VALID,25.046,VALID,349,VALID,1.38008,
2011-12-28, 00:28:04,VALID,1001.27,VALID,0,VALID,88.2747,VALID,0,VALID,25.0265,VALID,321,VALID,1.11914,
2011-12-28, 00:29:04,VALID,1001.25,VALID,0,VALID,88.5951,VALID,0,VALID,25.0069,VALID,341,VALID,0.914063,
2011-12-28, 00:30:04,VALID,1001.23,VALID,0,VALID,88.6104,VALID,0,VALID,24.9893,VALID,334,VALID,1.125,
2011-12-28, 00:31:04,VALID,1001.21,VALID,0,VALID,88.7325,VALID,0,VALID,24.9679,VALID,324,VALID,0.852344,
2011-12-28, 00:32:04,VALID,1001.19,VALID,0,VALID,88.5951,VALID,0,VALID,24.9484,VALID,334,VALID,1.04648,
2011-12-28, 00:33:04,VALID,1001.19,VALID,0,VALID,88.5494,VALID,0,VALID,24.9874,VALID,326,VALID,1.87422,
2011-12-28, 00:34:04,VALID,1001.17,VALID,0,VALID,88.5036,VALID,0,VALID,25.0069,VALID,345,VALID,1.51445,
2011-12-28, 00:35:04,VALID,1001.16,VALID,0,VALID,88.145,VALID,0,VALID,25.046,VALID,344,VALID,1.82617,
2011-12-28, 00:36:04,VALID,1001.14,VALID,0,VALID,87.9543,VALID,0,VALID,25.085,VALID,319,VALID,1.41719,
2011-12-28, 00:37:04,VALID,1001.11,VALID,0,VALID,87.9314,VALID,0,VALID,25.126,VALID,329,VALID,1.34141,
2011-12-28, 00:38:04,VALID,1001.09,VALID,0,VALID,88.2366,VALID,0,VALID,25.1045,VALID,329,VALID,0.896875,
2011-12-28, 00:39:04,VALID,1001.08,VALID,0,VALID,88.3052,VALID,0,VALID,25.0655,VALID,344,VALID,1.33789,
2011-12-28, 00:40:04,VALID,1001.04,VALID,0,VALID,88.1221,VALID,0,VALID,25.0674,VALID,356,VALID,2.06172,
2011-12-28, 00:41:04,VALID,1001.03,VALID,0,VALID,87.7864,VALID,0,VALID,25.1241,VALID,356,VALID,1.69883,
2011-12-28, 00:42:04,VALID,1001.03,VALID,0,VALID,87.8093,VALID,0,VALID,25.1241,VALID,339,VALID,1.35273,
2011-12-28, 00:43:04,VALID,1001.03,VALID,0,VALID,87.9771,VALID,0,VALID,25.1455,VALID,324,VALID,0.948828,
2011-12-28, 00:44:04,VALID,1000.98,VALID,0,VALID,87.9543,VALID,0,VALID,25.1045,VALID,359,VALID,2.46172,
2011-12-28, 00:45:04,VALID,1000.98,VALID,0,VALID,88.1297,VALID,0,VALID,25.126,VALID,331,VALID,1.20898,
2011-12-28, 00:46:04,VALID,1000.98,VALID,0,VALID,88.2594,VALID,0,VALID,25.0655,VALID,346,VALID,1.51797,
2011-12-28, 00:47:04,VALID,1000.93,VALID,0,VALID,88.3129,VALID,0,VALID,25.085,VALID,347,VALID,1.01445,
2011-12-28, 00:48:04,VALID,1000.97,VALID,0,VALID,88.5189,VALID,0,VALID,25.0674,VALID,354,VALID,1.15078,
2011-12-28, 00:49:04,VALID,1000.95,VALID,0,VALID,88.7325,VALID,0,VALID,25.0265,VALID,357,VALID,0.880469,
2011-12-28, 00:50:04,VALID,1000.95,VALID,0,VALID,89.0148,VALID,0,VALID,24.9874,VALID,345,VALID,0.792969,
2011-12-28, 00:51:04,VALID,1000.95,VALID,0,VALID,88.9919,VALID,0,VALID,24.9893,VALID,10,VALID,1.86484,
2011-12-28, 00:52:04,VALID,1000.94,VALID,0,VALID,88.9003,VALID,0,VALID,25.0088,VALID,340,VALID,1.31914,
2011-12-28, 00:53:04,VALID,1000.92,VALID,0,VALID,88.8546,VALID,0,VALID,25.0479,VALID,322,VALID,1.33711,
2011-12-28, 00:54:04,VALID,1000.93,VALID,0,VALID,88.8927,VALID,0,VALID,25.046,VALID,326,VALID,1.35938,
2011-12-28, 00:55:04,VALID,1000.92,VALID,0,VALID,88.9385,VALID,0,VALID,25.0674,VALID,330,VALID,1.59023,
2011-12-28, 00:56:04,VALID,1000.92,VALID,0,VALID,89.1368,VALID,0,VALID,25.0674,VALID,345,VALID,0.882813,
2011-12-28, 00:57:04,VALID,1000.88,VALID,0,VALID,89.175,VALID,0,VALID,25.0265,VALID,344,VALID,0.880078,
2011-12-28, 00:58:04,VALID,1000.88,VALID,0,VALID,89.3352,VALID,0,VALID,25.0069,VALID,344,VALID,0.689844,
2011-12-28, 00:59:04,VALID,1000.84,VALID,0,VALID,89.4726,VALID,0,VALID,25.0284,VALID,344,VALID,0.733984,
2011-12-28, 01:00:04,VALID,1000.85,VALID,0,VALID,89.6023,VALID,0,VALID,25.0088,VALID,344,VALID,0.756641,
2011-12-28, 01:01:04,VALID,1000.84,VALID,0,VALID,89.6099,VALID,0,VALID,25.0088,VALID,346,VALID,1.1082,
2011-12-28, 01:02:04,VALID,1000.87,VALID,0,VALID,89.6786,VALID,0,VALID,25.0088,VALID,316,VALID,0.719141,
2011-12-28, 01:03:04,VALID,1000.84,VALID,0,VALID,89.6862,VALID,0,VALID,24.9874,VALID,316,VALID,0.772266,
2011-12-28, 01:04:04,VALID,1000.82,VALID,0,VALID,89.6938,VALID,0,VALID,25.0088,VALID,316,VALID,0.691406,
2011-12-28, 01:05:04,VALID,1000.84,VALID,0,VALID,89.7701,VALID,0,VALID,24.9874,VALID,308,VALID,0.694141,
2011-12-28, 01:06:04,VALID,1000.82,VALID,0.5,VALID,89.7243,VALID,0,VALID,25.0284,VALID,323,VALID,0.607813,
2011-12-28, 01:07:04,VALID,1000.8,VALID,0,VALID,89.7701,VALID,0,VALID,25.0069,VALID,323,VALID,0.875,
2011-12-28, 01:08:04,VALID,1000.8,VALID,0,VALID,89.8464,VALID,0,VALID,25.0069,VALID,323,VALID,0.0796875,
2011-12-28, 01:09:04,VALID,1000.77,VALID,0,VALID,89.9074,VALID,0,VALID,25.0284,VALID,323,VALID,0,
2011-12-28, 01:10:04,VALID,1000.77,VALID,0,VALID,90.0677,VALID,0,VALID,24.9874,VALID,320,VALID,0.505859,
2011-12-28, 01:11:04,VALID,1000.77,VALID,0,VALID,89.9685,VALID,0,VALID,25.0088,VALID,306,VALID,0.757422,
2011-12-28, 01:12:04,VALID,1000.79,VALID,0,VALID,89.938,VALID,0,VALID,24.9874,VALID,310,VALID,0.743359,
2011-12-28, 01:13:04,VALID,1000.77,VALID,0,VALID,89.9609,VALID,0,VALID,24.9874,VALID,310,VALID,0.783594,
2011-12-28, 01:14:04,VALID,1000.78,VALID,0,VALID,89.8922,VALID,0,VALID,25.0265,VALID,330,VALID,0.950781,
2011-12-28, 01:15:04,VALID,1000.8,VALID,0,VALID,90.0295,VALID,0,VALID,25.0069,VALID,324,VALID,0.626562,
2011-12-28, 01:16:04,VALID,1000.82,VALID,0,VALID,89.8388,VALID,0,VALID,25.0284,VALID,319,VALID,0.980469,
2011-12-28, 01:17:04,VALID,1000.81,VALID,0,VALID,89.8464,VALID,0,VALID,25.0069,VALID,325,VALID,1.0957,
2011-12-28, 01:18:04,VALID,1000.79,VALID,0,VALID,89.8617,VALID,0,VALID,25.0069,VALID,319,VALID,1.10781,
2011-12-28, 01:19:04,VALID,1000.8,VALID,0,VALID,89.8846,VALID,0,VALID,25.0069,VALID,324,VALID,0.622656,
2011-12-28, 01:20:04,VALID,1000.8,VALID,0,VALID,89.9609,VALID,0,VALID,25.0088,VALID,326,VALID,0.750391,
2011-12-28, 01:21:04,VALID,1000.82,VALID,0,VALID,90.1287,VALID,0,VALID,25.0088,VALID,318,VALID,0.537891,
2011-12-28, 01:22:04,VALID,1000.78,VALID,0,VALID,90.1897,VALID,0,VALID,24.9679,VALID,336,VALID,1.28047,
2011-12-28, 01:23:04,VALID,1000.77,VALID,0,VALID,89.9532,VALID,0,VALID,24.9874,VALID,339,VALID,1.40898,
2011-12-28, 01:24:04,VALID,1000.77,VALID,0,VALID,89.9609,VALID,0,VALID,24.9874,VALID,316,VALID,0.994141,
2011-12-28, 01:25:04,VALID,1000.78,VALID,0,VALID,89.9303,VALID,0,VALID,25.0284,VALID,342,VALID,0.888281,
2011-12-28, 01:26:04,VALID,1000.78,VALID,0,VALID,89.8006,VALID,0,VALID,25.0265,VALID,302,VALID,1.18906,
2011-12-28, 01:27:04,VALID,1000.8,VALID,0,VALID,89.6328,VALID,0,VALID,25.046,VALID,319,VALID,1.26563,
2011-12-28, 01:28:04,VALID,1000.78,VALID,0,VALID,89.5031,VALID,0,VALID,25.0869,VALID,342,VALID,1.19727,
2011-12-28, 01:29:04,VALID,1000.81,VALID,0,VALID,89.6023,VALID,0.104696,VALID,25.085,VALID,336,VALID,0.975391,
2011-12-28, 01:30:04,VALID,1000.76,VALID,0,VALID,89.732,VALID,0,VALID,25.0655,VALID,350,VALID,0.789063,
2011-12-28, 01:31:04,VALID,1000.78,VALID,0,VALID,89.4268,VALID,0,VALID,25.0674,VALID,338,VALID,1.00469,
2011-12-28, 01:32:04,VALID,1000.76,VALID,0,VALID,89.3657,VALID,0,VALID,25.0869,VALID,337,VALID,0.969141,
2011-12-28, 01:33:04,VALID,1000.78,VALID,0,VALID,89.381,VALID,0,VALID,25.0655,VALID,350,VALID,1.54414,
2011-12-28, 01:34:04,VALID,1000.79,VALID,0,VALID,89.587,VALID,0,VALID,25.0655,VALID,337,VALID,0.465234,
2011-12-28, 01:35:04,VALID,1000.76,VALID,0,VALID,89.8006,VALID,0,VALID,25.046,VALID,332,VALID,0.389453,
2011-12-28, 01:36:04,VALID,1000.77,VALID,0,VALID,89.7701,VALID,0,VALID,25.0069,VALID,295,VALID,1.02891,
2011-12-28, 01:37:04,VALID,1000.78,VALID,0,VALID,89.8006,VALID,0,VALID,25.0265,VALID,311,VALID,0.530078,
2011-12-28, 01:38:04,VALID,1000.77,VALID,0,VALID,89.6786,VALID,0,VALID,25.0069,VALID,334,VALID,1.05625,
2011-12-28, 01:39:04,VALID,1000.75,VALID,0,VALID,89.7396,VALID,0,VALID,25.0069,VALID,305,VALID,0.710156,
2011-12-28, 01:40:04,VALID,1000.74,VALID,0,VALID,89.6709,VALID,0,VALID,25.0284,VALID,357,VALID,1.41719,
2011-12-28, 01:41:04,VALID,1000.71,VALID,0,VALID,89.7243,VALID,0,VALID,25.0088,VALID,308,VALID,0.798828,
2011-12-28, 01:42:04,VALID,1000.72,VALID,0,VALID,89.5641,VALID,0,VALID,25.0088,VALID,328,VALID,1.60781,
2011-12-28, 01:43:04,VALID,1000.7,VALID,0,VALID,89.5717,VALID,0,VALID,25.0069,VALID,324,VALID,0.703906,
2011-12-28, 01:44:04,VALID,1000.71,VALID,0,VALID,89.4954,VALID,0,VALID,25.0265,VALID,331,VALID,1.28945,
2011-12-28, 01:45:04,VALID,1000.7,VALID,0,VALID,89.3352,VALID,0,VALID,25.0479,VALID,311,VALID,1.45586,
2011-12-28, 01:46:04,VALID,1000.69,VALID,0,VALID,89.4115,VALID,0,VALID,25.0674,VALID,300,VALID,0.729297,
2011-12-28, 01:47:04,VALID,1000.67,VALID,0,VALID,89.2818,VALID,0,VALID,25.0479,VALID,325,VALID,1.13945,
2011-12-28, 01:48:04,VALID,1000.67,VALID,0,VALID,89.3123,VALID,0,VALID,25.0674,VALID,314,VALID,0.710547,
2011-12-28, 01:49:04,VALID,1000.67,VALID,0,VALID,89.0987,VALID,0,VALID,25.0674,VALID,318,VALID,1.42031,
2011-12-28, 01:50:04,VALID,1000.67,VALID,0,VALID,88.9995,VALID,0,VALID,25.0869,VALID,289,VALID,1.05547,
2011-12-28, 01:51:04,VALID,1000.66,VALID,0,VALID,89.0758,VALID,0,VALID,25.0869,VALID,324,VALID,0.967188,
2011-12-28, 01:52:04,VALID,1000.66,VALID,0,VALID,89.1903,VALID,0,VALID,25.0869,VALID,325,VALID,0.676172,
2011-12-28, 01:53:04,VALID,1000.64,VALID,0,VALID,89.3886,VALID,0,VALID,25.046,VALID,341,VALID,0.699219,
2011-12-28, 01:54:04,VALID,1000.64,VALID,0,VALID,89.1597,VALID,0,VALID,25.0265,VALID,342,VALID,1.78789,
2011-12-28, 01:55:04,VALID,1000.63,VALID,0,VALID,88.8851,VALID,0,VALID,25.046,VALID,352,VALID,1.39922,
2011-12-28, 01:56:04,VALID,1000.64,VALID,0,VALID,88.8851,VALID,0,VALID,25.0655,VALID,337,VALID,1.44492,
2011-12-28, 01:57:04,VALID,1000.65,VALID,0,VALID,88.8698,VALID,0,VALID,25.0655,VALID,353,VALID,1.36016,
2011-12-28, 01:58:04,VALID,1000.68,VALID,0,VALID,89.03,VALID,0,VALID,25.0869,VALID,310,VALID,1.61016,
2011-12-28, 01:59:04,VALID,1000.64,VALID,0,VALID,88.824,VALID,0,VALID,25.085,VALID,315,VALID,1.38945,
2011-12-28, 02:00:04,VALID,1000.67,VALID,0,VALID,88.6409,VALID,0,VALID,25.085,VALID,325,VALID,1.36914,
2011-12-28, 02:01:04,VALID,1000.63,VALID,0,VALID,88.6562,VALID,0,VALID,25.085,VALID,22,VALID,1.15859,
2011-12-28, 02:02:04,VALID,1000.65,VALID,0,VALID,88.8927,VALID,0,VALID,25.0869,VALID,344,VALID,1.15273,
2011-12-28, 02:03:04,VALID,1000.66,VALID,0,VALID,89.03,VALID,0,VALID,25.0674,VALID,348,VALID,0.833984,
2011-12-28, 02:04:04,VALID,1000.68,VALID,0,VALID,89.1063,VALID,0,VALID,25.0479,VALID,348,VALID,0.891406,
2011-12-28, 02:05:04,VALID,1000.65,VALID,0,VALID,88.9385,VALID,0,VALID,25.0265,VALID,342,VALID,1.24336,
2011-12-28, 02:06:04,VALID,1000.65,VALID,0,VALID,88.6943,VALID,0,VALID,25.0479,VALID,347,VALID,2.03125,
2011-12-28, 02:07:04,VALID,1000.64,VALID,0,VALID,88.6867,VALID,0,VALID,25.0674,VALID,341,VALID,1.43906,
2011-12-28, 02:08:04,VALID,1000.65,VALID,0,VALID,88.6867,VALID,0,VALID,25.0869,VALID,345,VALID,0.84375,
2011-12-28, 02:09:04,VALID,1000.61,VALID,0,VALID,88.3357,VALID,0,VALID,25.0655,VALID,338,VALID,1.25508,
2011-12-28, 02:10:04,VALID,1000.64,VALID,0,VALID,88.1908,VALID,0,VALID,25.1045,VALID,334,VALID,1.81445,
2011-12-28, 02:11:04,VALID,1000.64,VALID,0,VALID,88.0458,VALID,0,VALID,25.1455,VALID,340,VALID,1.89766,
2011-12-28, 02:12:04,VALID,1000.61,VALID,0,VALID,87.9466,VALID,0,VALID,25.1241,VALID,350,VALID,1.47109,
2011-12-28, 02:13:04,VALID,1000.61,VALID,0,VALID,87.878,VALID,0,VALID,25.1241,VALID,321,VALID,1.48828,
2011-12-28, 02:14:04,VALID,1000.61,VALID,0,VALID,87.8398,VALID,0,VALID,25.165,VALID,319,VALID,0.963281,
2011-12-28, 02:15:04,VALID,1000.65,VALID,0,VALID,87.5804,VALID,0,VALID,25.165,VALID,341,VALID,2.13555,
2011-12-28, 02:16:04,VALID,1000.63,VALID,0,VALID,87.8474,VALID,0,VALID,25.1631,VALID,340,VALID,1.39453,
2011-12-28, 02:17:04,VALID,1000.64,VALID,0,VALID,87.9695,VALID,0,VALID,25.165,VALID,345,VALID,1.42422,
2011-12-28, 02:18:04,VALID,1000.63,VALID,0,VALID,88.1145,VALID,0,VALID,25.1045,VALID,348,VALID,0.986328,
2011-12-28, 02:19:04,VALID,1000.59,VALID,0,VALID,88.2213,VALID,0,VALID,25.1064,VALID,347,VALID,0.946484,
2011-12-28, 02:20:04,VALID,1000.59,VALID,0,VALID,87.9161,VALID,0,VALID,25.0655,VALID,340,VALID,1.57578,
2011-12-28, 02:21:04,VALID,1000.56,VALID,0,VALID,87.6414,VALID,0,VALID,25.1241,VALID,341,VALID,1.48828,
2011-12-28, 02:22:04,VALID,1000.53,VALID,0,VALID,87.5117,VALID,0,VALID,25.165,VALID,321,VALID,1.39102,
2011-12-28, 02:23:04,VALID,1000.57,VALID,0,VALID,87.7177,VALID,0,VALID,25.1241,VALID,319,VALID,0.979688,
2011-12-28, 02:24:04,VALID,1000.58,VALID,0,VALID,87.7177,VALID,0,VALID,25.1241,VALID,339,VALID,0.932813,
2011-12-28, 02:25:04,VALID,1000.55,VALID,0,VALID,87.3057,VALID,0,VALID,25.126,VALID,74,VALID,1.0543,
2011-12-28, 02:26:04,VALID,1000.54,VALID,0,VALID,87.5728,VALID,0,VALID,25.1455,VALID,331,VALID,0.776563,
2011-12-28, 02:27:04,VALID,1000.58,VALID,0,VALID,87.5194,VALID,0,VALID,25.1045,VALID,315,VALID,1.15547,
2011-12-28, 02:28:04,VALID,1000.55,VALID,0,VALID,87.3973,VALID,0,VALID,25.126,VALID,312,VALID,1.16484,
2011-12-28, 02:29:04,VALID,1000.56,VALID,0,VALID,87.6033,VALID,0,VALID,25.126,VALID,324,VALID,1.4668,
2011-12-28, 02:30:04,VALID,1000.52,VALID,0,VALID,87.2218,VALID,0,VALID,25.1064,VALID,285,VALID,1.89219,
2011-12-28, 02:31:04,VALID,1000.56,VALID,0,VALID,86.9395,VALID,0,VALID,25.165,VALID,350,VALID,1.20234,
2011-12-28, 02:32:04,VALID,1000.54,VALID,0,VALID,87.0082,VALID,0,VALID,25.165,VALID,336,VALID,0.807813,
2011-12-28, 02:33:04,VALID,1000.51,VALID,0,VALID,86.6038,VALID,0,VALID,25.165,VALID,325,VALID,1.43789,
2011-12-28, 02:34:04,VALID,1000.51,VALID,0,VALID,86.848,VALID,0,VALID,25.1631,VALID,348,VALID,1.27695,
2011-12-28, 02:35:04,VALID,1000.51,VALID,0,VALID,86.5275,VALID,0,VALID,25.1436,VALID,332,VALID,1.61406,
2011-12-28, 02:36:04,VALID,1000.52,VALID,0,VALID,86.7564,VALID,0,VALID,25.165,VALID,357,VALID,1.47383,
2011-12-28, 02:37:04,VALID,1000.52,VALID,0,VALID,87.0387,VALID,0,VALID,25.126,VALID,336,VALID,1.45273,
2011-12-28, 02:38:04,VALID,1000.49,VALID,0,VALID,86.9548,VALID,0,VALID,25.085,VALID,353,VALID,1.04688,
2011-12-28, 02:39:04,VALID,1000.51,VALID,0,VALID,86.8709,VALID,0,VALID,25.0655,VALID,340,VALID,1.74766,
2011-12-28, 02:40:04,VALID,1000.49,VALID,0,VALID,86.5123,VALID,0,VALID,25.1045,VALID,346,VALID,2.10195,
2011-12-28, 02:41:04,VALID,1000.48,VALID,0,VALID,86.4817,VALID,0,VALID,25.1064,VALID,354,VALID,1.94805,
2011-12-28, 02:42:04,VALID,1000.47,VALID,0,VALID,86.4817,VALID,0,VALID,25.1045,VALID,350,VALID,1.46953,
2011-12-28, 02:43:04,VALID,1000.45,VALID,0,VALID,86.558,VALID,0,VALID,25.126,VALID,342,VALID,1.36563,
2011-12-28, 02:44:04,VALID,1000.48,VALID,0,VALID,86.7564,VALID,0,VALID,25.085,VALID,345,VALID,1.08281,
2011-12-28, 02:45:04,VALID,1000.45,VALID,0,VALID,86.9472,VALID,0,VALID,25.0655,VALID,345,VALID,0.850781,
2011-12-28, 02:46:04,VALID,1000.43,VALID,0,VALID,87.1913,VALID,0,VALID,25.0265,VALID,345,VALID,1.09961,
2011-12-28, 02:47:04,VALID,1000.45,VALID,0,VALID,87.321,VALID,0,VALID,24.9874,VALID,345,VALID,0.730859,
2011-12-28, 02:48:04,VALID,1000.44,VALID,0,VALID,87.3286,VALID,0,VALID,24.9874,VALID,332,VALID,1.1625,
2011-12-28, 02:49:04,VALID,1000.47,VALID,0,VALID,87.2371,VALID,0,VALID,24.9874,VALID,348,VALID,1.10195,
2011-12-28, 02:50:04,VALID,1000.43,VALID,0,VALID,87.115,VALID,0,VALID,25.0284,VALID,348,VALID,1.30273,
2011-12-28, 02:51:04,VALID,1000.44,VALID,0,VALID,87.2066,VALID,0,VALID,25.0479,VALID,348,VALID,1.29531,
2011-12-28, 02:52:04,VALID,1000.46,VALID,0,VALID,86.8556,VALID,0,VALID,25.0674,VALID,329,VALID,2.18711,
2011-12-28, 02:53:04,VALID,1000.44,VALID,0,VALID,86.8327,VALID,0,VALID,25.1045,VALID,348,VALID,1.57031,
2011-12-28, 02:54:04,VALID,1000.45,VALID,0,VALID,86.9243,VALID,0,VALID,25.1045,VALID,350,VALID,1.475,
2011-12-28, 02:55:04,VALID,1000.45,VALID,0,VALID,86.8632,VALID,0,VALID,25.1455,VALID,350,VALID,1.94375,
2011-12-28, 02:56:04,VALID,1000.45,VALID,0,VALID,86.9853,VALID,0,VALID,25.165,VALID,358,VALID,1.01758,
2011-12-28, 02:57:04,VALID,1000.45,VALID,0,VALID,87.0311,VALID,0,VALID,25.126,VALID,8,VALID,1.39375,
2011-12-28, 02:58:04,VALID,1000.45,VALID,0,VALID,87.1532,VALID,0,VALID,25.085,VALID,9,VALID,1.06016,
2011-12-28, 02:59:04,VALID,1000.44,VALID,0,VALID,87.3744,VALID,0,VALID,25.0674,VALID,3,VALID,0.70625,
2011-12-28, 03:00:04,VALID,1000.43,VALID,0,VALID,87.5346,VALID,0,VALID,25.0479,VALID,9,VALID,1.06641,
2011-12-28, 03:01:04,VALID,1000.43,VALID,0,VALID,87.6643,VALID,0,VALID,25.0284,VALID,353,VALID,1.34922,
2011-12-28, 03:02:04,VALID,1000.44,VALID,0,VALID,87.7559,VALID,0,VALID,24.9874,VALID,347,VALID,0.990234,
2011-12-28, 03:03:04,VALID,1000.43,VALID,0,VALID,87.8246,VALID,0,VALID,24.9893,VALID,347,VALID,1.3125,
2011-12-28, 03:04:04,VALID,1000.43,VALID,0,VALID,87.9771,VALID,0,VALID,24.9679,VALID,347,VALID,0.330859,
2011-12-28, 03:05:04,VALID,1000.41,VALID,0,VALID,88.2442,VALID,0,VALID,24.9484,VALID,347,VALID,0.664063,
2011-12-28, 03:06:04,VALID,1000.42,VALID,0,VALID,88.4654,VALID,0,VALID,24.9308,VALID,347,VALID,0.787891,
2011-12-28, 03:07:04,VALID,1000.4,VALID,0,VALID,88.6333,VALID,0,VALID,24.8917,VALID,347,VALID,0.45,
2011-12-28, 03:08:04,VALID,1000.38,VALID,0,VALID,88.6104,VALID,0,VALID,24.8722,VALID,347,VALID,0.725391,
2011-12-28, 03:09:04,VALID,1000.37,VALID,0,VALID,88.3052,VALID,0,VALID,24.8917,VALID,3,VALID,1.01445,
2011-12-28, 03:10:04,VALID,1000.37,VALID,0,VALID,88.0611,VALID,0,VALID,24.9093,VALID,345,VALID,1.06797,
2011-12-28, 03:11:04,VALID,1000.38,VALID,0,VALID,88.1603,VALID,0,VALID,24.9289,VALID,307,VALID,0.778516,
2011-12-28, 03:12:04,VALID,1000.39,VALID,0,VALID,88.0229,VALID,0,VALID,24.9698,VALID,307,VALID,0.657031,
2011-12-28, 03:13:04,VALID,1000.4,VALID,0,VALID,88.1755,VALID,0,VALID,24.9503,VALID,315,VALID,0.765625,
2011-12-28, 03:14:04,VALID,1000.4,VALID,0,VALID,87.7254,VALID,0,VALID,24.9698,VALID,357,VALID,1.62578,
2011-12-28, 03:15:04,VALID,1000.42,VALID,0,VALID,87.4965,VALID,0,VALID,25.0284,VALID,342,VALID,1.43281,
2011-12-28, 03:16:04,VALID,1000.38,VALID,0,VALID,87.4507,VALID,0,VALID,25.0265,VALID,14,VALID,1.86953,
2011-12-28, 03:17:04,VALID,1000.42,VALID,0,VALID,87.382,VALID,0,VALID,25.1064,VALID,358,VALID,1.83984,
2011-12-28, 03:18:04,VALID,1000.45,VALID,0,VALID,87.8017,VALID,0,VALID,25.0674,VALID,336,VALID,2.37812,
2011-12-28, 03:19:04,VALID,1000.45,VALID,0,VALID,87.9848,VALID,0,VALID,25.0069,VALID,355,VALID,2.34102,
2011-12-28, 03:20:04,VALID,1000.5,VALID,0,VALID,87.4354,VALID,0,VALID,25.0088,VALID,346,VALID,2.76602,
2011-12-28, 03:21:04,VALID,1000.45,VALID,0,VALID,87.7406,VALID,0,VALID,24.9874,VALID,345,VALID,2.3082,
2011-12-28, 03:22:04,VALID,1000.46,VALID,0,VALID,88.1832,VALID,0,VALID,24.9679,VALID,2,VALID,1.79883,
2011-12-28, 03:23:04,VALID,1000.48,VALID,0,VALID,88.2976,VALID,0,VALID,24.9093,VALID,356,VALID,2.92852,
2011-12-28, 03:24:04,VALID,1000.48,VALID,0,VALID,88.351,VALID,0,VALID,24.9308,VALID,341,VALID,2.43789,
2011-12-28, 03:25:04,VALID,1000.5,VALID,0.5,VALID,88.6486,VALID,0,VALID,24.8898,VALID,315,VALID,1.85352,
2011-12-28, 03:26:04,VALID,1000.5,VALID,0,VALID,88.8011,VALID,0,VALID,24.8898,VALID,339,VALID,1.73594,
2011-12-28, 03:27:04,VALID,1000.52,VALID,0,VALID,88.9385,VALID,0,VALID,24.8917,VALID,355,VALID,1.4418,
2011-12-28, 03:28:04,VALID,1000.53,VALID,0,VALID,89.1368,VALID,0,VALID,24.8508,VALID,2,VALID,1.09258,
2011-12-28, 03:29:04,VALID,1000.56,VALID,0,VALID,89.2666,VALID,0,VALID,24.8332,VALID,357,VALID,0.954297,
2011-12-28, 03:30:04,VALID,1000.56,VALID,0,VALID,89.4649,VALID,0,VALID,24.7922,VALID,4,VALID,0.961719,
2011-12-28, 03:31:04,VALID,1000.56,VALID,0,VALID,89.5489,VALID,0,VALID,24.7746,VALID,3,VALID,0.970703,
2011-12-28, 03:32:04,VALID,1000.56,VALID,0,VALID,89.5946,VALID,0,VALID,24.7532,VALID,359,VALID,0.703516,
2011-12-28, 03:33:04,VALID,1000.58,VALID,0,VALID,89.7014,VALID,0,VALID,24.7337,VALID,354,VALID,0.916016,
2011-12-28, 03:34:04,VALID,1000.59,VALID,0,VALID,89.6709,VALID,0,VALID,24.7337,VALID,346,VALID,0.892969,
2011-12-28, 03:35:04,VALID,1000.59,VALID,0,VALID,89.5412,VALID,0,VALID,24.7551,VALID,6,VALID,1.63906,
2011-12-28, 03:36:04,VALID,1000.6,VALID,0,VALID,89.4344,VALID,0,VALID,24.7532,VALID,19,VALID,1.12578,
2011-12-28, 03:37:04,VALID,1000.57,VALID,0,VALID,89.4039,VALID,0,VALID,24.7727,VALID,7,VALID,1.30625,
2011-12-28, 03:38:04,VALID,1000.61,VALID,0,VALID,89.4726,VALID,0,VALID,24.7746,VALID,7,VALID,1.02305,
2011-12-28, 03:39:04,VALID,1000.59,VALID,0,VALID,89.5031,VALID,0,VALID,24.7532,VALID,20,VALID,1.0957,
2011-12-28, 03:40:04,VALID,1000.6,VALID,0,VALID,89.5489,VALID,0,VALID,24.7532,VALID,20,VALID,0.876562,
2011-12-28, 03:41:04,VALID,1000.61,VALID,0,VALID,89.6862,VALID,0,VALID,24.7551,VALID,12,VALID,1.11016,
2011-12-28, 03:42:04,VALID,1000.58,VALID,0,VALID,89.648,VALID,0,VALID,24.7356,VALID,359,VALID,1.4,
2011-12-28, 03:43:04,VALID,1000.62,VALID,0,VALID,89.5031,VALID,0,VALID,24.7356,VALID,9,VALID,1.34844,
2011-12-28, 03:44:04,VALID,1000.61,VALID,0,VALID,89.2818,VALID,0,VALID,24.7727,VALID,329,VALID,1.01992,
2011-12-28, 03:45:04,VALID,1000.63,VALID,0,VALID,89.32,VALID,0,VALID,24.7941,VALID,343,VALID,1.16484,
2011-12-28, 03:46:04,VALID,1000.65,VALID,0,VALID,89.1063,VALID,0,VALID,24.7727,VALID,13,VALID,1.70039,